"Time","Value","Approval","myLocation"
"2024-01-23 20:00",23.776,"Approved","OW392"
"2024-01-23 21:00",23.7720394052045,"Approved","OW392"
"2024-01-23 22:00",23.7680788104089,"Approved","OW392"
"2024-01-23 23:00",23.7701182156134,"Approved","OW392"
"2024-01-24 00:00",23.7751576208178,"Approved","OW392"
"2024-01-24 01:00",23.7751970260223,"Approved","OW392"
"2024-01-24 02:00",23.7742364312268,"Approved","OW392"
"2024-01-24 03:00",23.7722758364312,"Approved","OW392"
"2024-01-24 04:00",23.7713152416357,"Approved","OW392"
"2024-01-24 05:00",23.7663546468401,"Approved","OW392"
"2024-01-24 06:00",23.7653940520446,"Approved","OW392"
"2024-01-24 07:00",23.7654334572491,"Approved","OW392"
"2024-01-24 08:00",23.7584728624535,"Approved","OW392"
"2024-01-24 09:00",23.752512267658,"Approved","OW392"
"2024-01-24 10:00",23.7475516728625,"Approved","OW392"
"2024-01-24 11:00",23.7415910780669,"Approved","OW392"
"2024-01-24 12:00",23.7296304832714,"Approved","OW392"
"2024-01-24 13:00",23.7176698884758,"Approved","OW392"
"2024-01-24 14:00",23.7127092936803,"Approved","OW392"
"2024-01-24 15:00",23.7077486988848,"Approved","OW392"
"2024-01-24 16:00",23.7037881040892,"Approved","OW392"
"2024-01-24 17:00",23.7048275092937,"Approved","OW392"
"2024-01-24 18:00",23.7068669144981,"Approved","OW392"
"2024-01-24 19:00",23.7149063197026,"Approved","OW392"
"2024-01-24 20:00",23.7109457249071,"Approved","OW392"
"2024-01-24 21:00",23.7159851301115,"Approved","OW392"
"2024-01-24 22:00",23.720024535316,"Approved","OW392"
"2024-01-24 23:00",23.7180639405204,"Approved","OW392"
"2024-01-25 00:00",23.7231033457249,"Approved","OW392"
"2024-01-25 01:00",23.7251427509294,"Approved","OW392"
"2024-01-25 02:00",23.7311821561338,"Approved","OW392"
"2024-01-25 03:00",23.7332215613383,"Approved","OW392"
"2024-01-25 04:00",23.7442609665428,"Approved","OW392"
"2024-01-25 05:00",23.7503003717472,"Approved","OW392"
"2024-01-25 06:00",23.7573397769517,"Approved","OW392"
"2024-01-25 07:00",23.7653791821561,"Approved","OW392"
"2024-01-25 08:00",23.7714185873606,"Approved","OW392"
"2024-01-25 09:00",23.7744579925651,"Approved","OW392"
"2024-01-25 10:00",23.7794973977695,"Approved","OW392"
"2024-01-25 11:00",23.785536802974,"Approved","OW392"
"2024-01-25 12:00",23.7905762081784,"Approved","OW392"
"2024-01-25 13:00",23.7956156133829,"Approved","OW392"
"2024-01-25 14:00",23.8006550185874,"Approved","OW392"
"2024-01-25 15:00",23.8066944237918,"Approved","OW392"
"2024-01-25 16:00",23.8137338289963,"Approved","OW392"
"2024-01-25 17:00",23.8237732342007,"Approved","OW392"
"2024-01-25 18:00",23.8328126394052,"Approved","OW392"
"2024-01-25 19:00",23.8408520446097,"Approved","OW392"
"2024-01-25 20:00",23.8438914498141,"Approved","OW392"
"2024-01-25 21:00",23.8469308550186,"Approved","OW392"
"2024-01-25 22:00",23.848970260223,"Approved","OW392"
"2024-01-25 23:00",23.8560096654275,"Approved","OW392"
"2024-01-26 00:00",23.863049070632,"Approved","OW392"
"2024-01-26 01:00",23.8690884758364,"Approved","OW392"
"2024-01-26 02:00",23.8731278810409,"Approved","OW392"
"2024-01-26 03:00",23.8771672862454,"Approved","OW392"
"2024-01-26 04:00",23.8802066914498,"Approved","OW392"
"2024-01-26 05:00",23.8852460966543,"Approved","OW392"
"2024-01-26 06:00",23.8902855018587,"Approved","OW392"
"2024-01-26 07:00",23.8923249070632,"Approved","OW392"
"2024-01-26 08:00",23.8933643122677,"Approved","OW392"
"2024-01-26 09:00",23.8934037174721,"Approved","OW392"
"2024-01-26 10:00",23.8974431226766,"Approved","OW392"
"2024-01-26 11:00",23.899482527881,"Approved","OW392"
"2024-01-26 12:00",23.8985219330855,"Approved","OW392"
"2024-01-26 13:00",23.89756133829,"Approved","OW392"
"2024-01-26 14:00",23.8966007434944,"Approved","OW392"
"2024-01-26 15:00",23.8936401486989,"Approved","OW392"
"2024-01-26 16:00",23.8946795539033,"Approved","OW392"
"2024-01-26 17:00",23.8967189591078,"Approved","OW392"
"2024-01-26 18:00",23.8967583643123,"Approved","OW392"
"2024-01-26 19:00",23.8977977695167,"Approved","OW392"
"2024-01-26 20:00",23.8898371747212,"Approved","OW392"
"2024-01-26 21:00",23.8818765799257,"Approved","OW392"
"2024-01-26 22:00",23.8749159851301,"Approved","OW392"
"2024-01-26 23:00",23.8699553903346,"Approved","OW392"
"2024-01-27 00:00",23.866994795539,"Approved","OW392"
"2024-01-27 01:00",23.8640342007435,"Approved","OW392"
"2024-01-27 02:00",23.865073605948,"Approved","OW392"
"2024-01-27 03:00",23.8671130111524,"Approved","OW392"
"2024-01-27 04:00",23.8711524163569,"Approved","OW392"
"2024-01-27 05:00",23.8771918215613,"Approved","OW392"
"2024-01-27 06:00",23.8802312267658,"Approved","OW392"
"2024-01-27 07:00",23.8812706319703,"Approved","OW392"
"2024-01-27 08:00",23.8823100371747,"Approved","OW392"
"2024-01-27 09:00",23.8843494423792,"Approved","OW392"
"2024-01-27 10:00",23.8833888475836,"Approved","OW392"
"2024-01-27 11:00",23.8844282527881,"Approved","OW392"
"2024-01-27 12:00",23.8824676579926,"Approved","OW392"
"2024-01-27 13:00",23.881507063197,"Approved","OW392"
"2024-01-27 14:00",23.8805464684015,"Approved","OW392"
"2024-01-27 15:00",23.876585873606,"Approved","OW392"
"2024-01-27 16:00",23.8756252788104,"Approved","OW392"
"2024-01-27 17:00",23.8716646840149,"Approved","OW392"
"2024-01-27 18:00",23.8707040892193,"Approved","OW392"
"2024-01-27 19:00",23.8707434944238,"Approved","OW392"
"2024-01-27 20:00",23.8697828996283,"Approved","OW392"
"2024-01-27 21:00",23.8648223048327,"Approved","OW392"
"2024-01-27 22:00",23.8638617100372,"Approved","OW392"
"2024-01-27 23:00",23.8639011152416,"Approved","OW392"
"2024-01-28 00:00",23.8699405204461,"Approved","OW392"
"2024-01-28 01:00",23.8689799256506,"Approved","OW392"
"2024-01-28 02:00",23.873019330855,"Approved","OW392"
"2024-01-28 03:00",23.8760587360595,"Approved","OW392"
"2024-01-28 04:00",23.8760981412639,"Approved","OW392"
"2024-01-28 05:00",23.8721375464684,"Approved","OW392"
"2024-01-28 06:00",23.8751769516729,"Approved","OW392"
"2024-01-28 07:00",23.8812163568773,"Approved","OW392"
"2024-01-28 08:00",23.8912557620818,"Approved","OW392"
"2024-01-28 09:00",23.8902951672862,"Approved","OW392"
"2024-01-28 10:00",23.8953345724907,"Approved","OW392"
"2024-01-28 11:00",23.8963739776952,"Approved","OW392"
"2024-01-28 12:00",23.8984133828996,"Approved","OW392"
"2024-01-28 13:00",23.8964527881041,"Approved","OW392"
"2024-01-28 14:00",23.9004921933086,"Approved","OW392"
"2024-01-28 15:00",23.910531598513,"Approved","OW392"
"2024-01-28 16:00",23.9175710037175,"Approved","OW392"
"2024-01-28 17:00",23.9226104089219,"Approved","OW392"
"2024-01-28 18:00",23.9276498141264,"Approved","OW392"
"2024-01-28 19:00",23.9336892193309,"Approved","OW392"
"2024-01-28 20:00",23.9357286245353,"Approved","OW392"
"2024-01-28 21:00",23.9297680297398,"Approved","OW392"
"2024-01-28 22:00",23.9258074349442,"Approved","OW392"
"2024-01-28 23:00",23.9208468401487,"Approved","OW392"
"2024-01-29 00:00",23.9168862453532,"Approved","OW392"
"2024-01-29 01:00",23.9149256505576,"Approved","OW392"
"2024-01-29 02:00",23.9089650557621,"Approved","OW392"
"2024-01-29 03:00",23.9030044609665,"Approved","OW392"
"2024-01-29 04:00",23.906043866171,"Approved","OW392"
"2024-01-29 05:00",23.9030832713755,"Approved","OW392"
"2024-01-29 06:00",23.9031226765799,"Approved","OW392"
"2024-01-29 07:00",23.9081620817844,"Approved","OW392"
"2024-01-29 08:00",23.9042014869888,"Approved","OW392"
"2024-01-29 09:00",23.9012408921933,"Approved","OW392"
"2024-01-29 10:00",23.9052802973978,"Approved","OW392"
"2024-01-29 11:00",23.9073197026022,"Approved","OW392"
"2024-01-29 12:00",23.9073591078067,"Approved","OW392"
"2024-01-29 13:00",23.9003985130112,"Approved","OW392"
"2024-01-29 14:00",23.8994379182156,"Approved","OW392"
"2024-01-29 15:00",23.8994773234201,"Approved","OW392"
"2024-01-29 16:00",23.8985167286245,"Approved","OW392"
"2024-01-29 17:00",23.898556133829,"Approved","OW392"
"2024-01-29 18:00",23.8915955390335,"Approved","OW392"
"2024-01-29 19:00",23.8886349442379,"Approved","OW392"
"2024-01-29 20:00",23.8746743494424,"Approved","OW392"
"2024-01-29 21:00",23.8657137546468,"Approved","OW392"
"2024-01-29 22:00",23.8537531598513,"Approved","OW392"
"2024-01-29 23:00",23.8447925650558,"Approved","OW392"
"2024-01-30 00:00",23.8398319702602,"Approved","OW392"
"2024-01-30 01:00",23.8308713754647,"Approved","OW392"
"2024-01-30 02:00",23.8249107806691,"Approved","OW392"
"2024-01-30 03:00",23.8239501858736,"Approved","OW392"
"2024-01-30 04:00",23.8209895910781,"Approved","OW392"
"2024-01-30 05:00",23.8210289962825,"Approved","OW392"
"2024-01-30 06:00",23.832068401487,"Approved","OW392"
"2024-01-30 07:00",23.8431078066914,"Approved","OW392"
"2024-01-30 08:00",23.8561472118959,"Approved","OW392"
"2024-01-30 09:00",23.8641866171004,"Approved","OW392"
"2024-01-30 10:00",23.8702260223048,"Approved","OW392"
"2024-01-30 11:00",23.8782654275093,"Approved","OW392"
"2024-01-30 12:00",23.8843048327138,"Approved","OW392"
"2024-01-30 13:00",23.8843442379182,"Approved","OW392"
"2024-01-30 14:00",23.8923836431227,"Approved","OW392"
"2024-01-30 15:00",23.8844230483271,"Approved","OW392"
"2024-01-30 16:00",23.8844624535316,"Approved","OW392"
"2024-01-30 17:00",23.8805018587361,"Approved","OW392"
"2024-01-30 18:00",23.8755412639405,"Approved","OW392"
"2024-01-30 19:00",23.868580669145,"Approved","OW392"
"2024-01-30 20:00",23.8576200743494,"Approved","OW392"
"2024-01-30 21:00",23.8486594795539,"Approved","OW392"
"2024-01-30 22:00",23.8386988847584,"Approved","OW392"
"2024-01-30 23:00",23.8277382899628,"Approved","OW392"
"2024-01-31 00:00",23.8167776951673,"Approved","OW392"
"2024-01-31 01:00",23.7988171003717,"Approved","OW392"
"2024-01-31 02:00",23.7868565055762,"Approved","OW392"
"2024-01-31 03:00",23.7708959107807,"Approved","OW392"
"2024-01-31 04:00",23.7619353159851,"Approved","OW392"
"2024-01-31 05:00",23.7519747211896,"Approved","OW392"
"2024-01-31 06:00",23.744014126394,"Approved","OW392"
"2024-01-31 07:00",23.7370535315985,"Approved","OW392"
"2024-01-31 08:00",23.732092936803,"Approved","OW392"
"2024-01-31 09:00",23.7271323420074,"Approved","OW392"
"2024-01-31 10:00",23.7191717472119,"Approved","OW392"
"2024-01-31 11:00",23.7122111524164,"Approved","OW392"
"2024-01-31 12:00",23.7012505576208,"Approved","OW392"
"2024-01-31 13:00",23.6982899628253,"Approved","OW392"
"2024-01-31 14:00",23.6913293680297,"Approved","OW392"
"2024-01-31 15:00",23.6943687732342,"Approved","OW392"
"2024-01-31 16:00",23.6914081784387,"Approved","OW392"
"2024-01-31 17:00",23.6904475836431,"Approved","OW392"
"2024-01-31 18:00",23.6884869888476,"Approved","OW392"
"2024-01-31 19:00",23.688526394052,"Approved","OW392"
"2024-01-31 20:00",23.6905657992565,"Approved","OW392"
"2024-01-31 21:00",23.685605204461,"Approved","OW392"
"2024-01-31 22:00",23.6836446096654,"Approved","OW392"
"2024-01-31 23:00",23.6806840148699,"Approved","OW392"
"2024-02-01 00:00",23.6767234200743,"Approved","OW392"
"2024-02-01 01:00",23.6767628252788,"Approved","OW392"
"2024-02-01 02:00",23.6748022304833,"Approved","OW392"
"2024-02-01 03:00",23.6728416356877,"Approved","OW392"
"2024-02-01 04:00",23.6748810408922,"Approved","OW392"
"2024-02-01 05:00",23.6749204460967,"Approved","OW392"
"2024-02-01 06:00",23.6739598513011,"Approved","OW392"
"2024-02-01 07:00",23.6799992565056,"Approved","OW392"
"2024-02-01 08:00",23.68203866171,"Approved","OW392"
"2024-02-01 09:00",23.6800780669145,"Approved","OW392"
"2024-02-01 10:00",23.681117472119,"Approved","OW392"
"2024-02-01 11:00",23.6831568773234,"Approved","OW392"
"2024-02-01 12:00",23.6821962825279,"Approved","OW392"
"2024-02-01 13:00",23.6802356877323,"Approved","OW392"
"2024-02-01 14:00",23.6802750929368,"Approved","OW392"
"2024-02-01 15:00",23.6813144981413,"Approved","OW392"
"2024-02-01 16:00",23.6833539033457,"Approved","OW392"
"2024-02-01 17:00",23.6853933085502,"Approved","OW392"
"2024-02-01 18:00",23.6844327137546,"Approved","OW392"
"2024-02-01 19:00",23.6854721189591,"Approved","OW392"
"2024-02-01 20:00",23.6845115241636,"Approved","OW392"
"2024-02-01 21:00",23.682550929368,"Approved","OW392"
"2024-02-01 22:00",23.6785903345725,"Approved","OW392"
"2024-02-01 23:00",23.6826297397769,"Approved","OW392"
"2024-02-02 00:00",23.6786691449814,"Approved","OW392"
"2024-02-02 01:00",23.6807085501859,"Approved","OW392"
"2024-02-02 02:00",23.6877479553903,"Approved","OW392"
"2024-02-02 03:00",23.6917873605948,"Approved","OW392"
"2024-02-02 04:00",23.6938267657993,"Approved","OW392"
"2024-02-02 05:00",23.6978661710037,"Approved","OW392"
"2024-02-02 06:00",23.6989055762082,"Approved","OW392"
"2024-02-02 07:00",23.7019449814126,"Approved","OW392"
"2024-02-02 08:00",23.7049843866171,"Approved","OW392"
"2024-02-02 09:00",23.7070237918216,"Approved","OW392"
"2024-02-02 10:00",23.709063197026,"Approved","OW392"
"2024-02-02 11:00",23.7141026022305,"Approved","OW392"
"2024-02-02 12:00",23.7151420074349,"Approved","OW392"
"2024-02-02 13:00",23.7201814126394,"Approved","OW392"
"2024-02-02 14:00",23.7252208178439,"Approved","OW392"
"2024-02-02 15:00",23.7312602230483,"Approved","OW392"
"2024-02-02 16:00",23.7382996282528,"Approved","OW392"
"2024-02-02 17:00",23.7453390334572,"Approved","OW392"
"2024-02-02 18:00",23.7553784386617,"Approved","OW392"
"2024-02-02 19:00",23.7634178438662,"Approved","OW392"
"2024-02-02 20:00",23.7674572490706,"Approved","OW392"
"2024-02-02 21:00",23.7704966542751,"Approved","OW392"
"2024-02-02 22:00",23.7735360594796,"Approved","OW392"
"2024-02-02 23:00",23.782575464684,"Approved","OW392"
"2024-02-03 00:00",23.7886148698885,"Approved","OW392"
"2024-02-03 01:00",23.7946542750929,"Approved","OW392"
"2024-02-03 02:00",23.8046936802974,"Approved","OW392"
"2024-02-03 03:00",23.8107330855019,"Approved","OW392"
"2024-02-03 04:00",23.8177724907063,"Approved","OW392"
"2024-02-03 05:00",23.8228118959108,"Approved","OW392"
"2024-02-03 06:00",23.8288513011152,"Approved","OW392"
"2024-02-03 07:00",23.8358907063197,"Approved","OW392"
"2024-02-03 08:00",23.8449301115242,"Approved","OW392"
"2024-02-03 09:00",23.8479695167286,"Approved","OW392"
"2024-02-03 10:00",23.8540089219331,"Approved","OW392"
"2024-02-03 11:00",23.8580483271375,"Approved","OW392"
"2024-02-03 12:00",23.862087732342,"Approved","OW392"
"2024-02-03 13:00",23.8671271375465,"Approved","OW392"
"2024-02-03 14:00",23.8721665427509,"Approved","OW392"
"2024-02-03 15:00",23.8792059479554,"Approved","OW392"
"2024-02-03 16:00",23.8852453531599,"Approved","OW392"
"2024-02-03 17:00",23.8922847583643,"Approved","OW392"
"2024-02-03 18:00",23.8963241635688,"Approved","OW392"
"2024-02-03 19:00",23.9003635687732,"Approved","OW392"
"2024-02-03 20:00",23.9004029739777,"Approved","OW392"
"2024-02-03 21:00",23.8994423791822,"Approved","OW392"
"2024-02-03 22:00",23.8994817843866,"Approved","OW392"
"2024-02-03 23:00",23.9015211895911,"Approved","OW392"
"2024-02-04 00:00",23.9025605947955,"Approved","OW392"
"2024-02-04 01:00",23.9046,"Approved","OW392"
"2024-02-04 02:00",23.9066394052045,"Approved","OW392"
"2024-02-04 03:00",23.9066788104089,"Approved","OW392"
"2024-02-04 04:00",23.9077182156134,"Approved","OW392"
"2024-02-04 05:00",23.9087576208178,"Approved","OW392"
"2024-02-04 06:00",23.9117970260223,"Approved","OW392"
"2024-02-04 07:00",23.9128364312268,"Approved","OW392"
"2024-02-04 08:00",23.9128758364312,"Approved","OW392"
"2024-02-04 09:00",23.9099152416357,"Approved","OW392"
"2024-02-04 10:00",23.9089546468401,"Approved","OW392"
"2024-02-04 11:00",23.9079940520446,"Approved","OW392"
"2024-02-04 12:00",23.9030334572491,"Approved","OW392"
"2024-02-04 13:00",23.8990728624535,"Approved","OW392"
"2024-02-04 14:00",23.895112267658,"Approved","OW392"
"2024-02-04 15:00",23.8931516728625,"Approved","OW392"
"2024-02-04 16:00",23.8901910780669,"Approved","OW392"
"2024-02-04 17:00",23.8862304832714,"Approved","OW392"
"2024-02-04 18:00",23.8812698884758,"Approved","OW392"
"2024-02-04 19:00",23.8773092936803,"Approved","OW392"
"2024-02-04 20:00",23.8683486988848,"Approved","OW392"
"2024-02-04 21:00",23.8583881040892,"Approved","OW392"
"2024-02-04 22:00",23.8464275092937,"Approved","OW392"
"2024-02-04 23:00",23.8374669144981,"Approved","OW392"
"2024-02-05 00:00",23.8295063197026,"Approved","OW392"
"2024-02-05 01:00",23.8235457249071,"Approved","OW392"
"2024-02-05 02:00",23.8175851301115,"Approved","OW392"
"2024-02-05 03:00",23.811624535316,"Approved","OW392"
"2024-02-05 04:00",23.8066639405204,"Approved","OW392"
"2024-02-05 05:00",23.8017033457249,"Approved","OW392"
"2024-02-05 06:00",23.7957427509294,"Approved","OW392"
"2024-02-05 07:00",23.7887821561338,"Approved","OW392"
"2024-02-05 08:00",23.7838215613383,"Approved","OW392"
"2024-02-05 09:00",23.7808609665428,"Approved","OW392"
"2024-02-05 10:00",23.7759003717472,"Approved","OW392"
"2024-02-05 11:00",23.7739397769517,"Approved","OW392"
"2024-02-05 12:00",23.7679791821561,"Approved","OW392"
"2024-02-05 13:00",23.7660185873606,"Approved","OW392"
"2024-02-05 14:00",23.7650579925651,"Approved","OW392"
"2024-02-05 15:00",23.7660973977695,"Approved","OW392"
"2024-02-05 16:00",23.769136802974,"Approved","OW392"
"2024-02-05 17:00",23.7701762081784,"Approved","OW392"
"2024-02-05 18:00",23.7722156133829,"Approved","OW392"
"2024-02-05 19:00",23.7732550185874,"Approved","OW392"
"2024-02-05 20:00",23.7732944237918,"Approved","OW392"
"2024-02-05 21:00",23.7713338289963,"Approved","OW392"
"2024-02-05 22:00",23.7743732342007,"Approved","OW392"
"2024-02-05 23:00",23.7774126394052,"Approved","OW392"
"2024-02-06 00:00",23.7784520446097,"Approved","OW392"
"2024-02-06 01:00",23.7804914498141,"Approved","OW392"
"2024-02-06 02:00",23.7835308550186,"Approved","OW392"
"2024-02-06 03:00",23.785570260223,"Approved","OW392"
"2024-02-06 04:00",23.7886096654275,"Approved","OW392"
"2024-02-06 05:00",23.793649070632,"Approved","OW392"
"2024-02-06 06:00",23.7976884758364,"Approved","OW392"
"2024-02-06 07:00",23.7997278810409,"Approved","OW392"
"2024-02-06 08:00",23.8027672862454,"Approved","OW392"
"2024-02-06 09:00",23.8058066914498,"Approved","OW392"
"2024-02-06 10:00",23.8108460966543,"Approved","OW392"
"2024-02-06 11:00",23.8118855018587,"Approved","OW392"
"2024-02-06 12:00",23.8119249070632,"Approved","OW392"
"2024-02-06 13:00",23.8119643122677,"Approved","OW392"
"2024-02-06 14:00",23.8130037174721,"Approved","OW392"
"2024-02-06 15:00",23.8140431226766,"Approved","OW392"
"2024-02-06 16:00",23.817082527881,"Approved","OW392"
"2024-02-06 17:00",23.8151219330855,"Approved","OW392"
"2024-02-06 18:00",23.81316133829,"Approved","OW392"
"2024-02-06 19:00",23.8142007434944,"Approved","OW392"
"2024-02-06 20:00",23.8092401486989,"Approved","OW392"
"2024-02-06 21:00",23.8012795539033,"Approved","OW392"
"2024-02-06 22:00",23.7953189591078,"Approved","OW392"
"2024-02-06 23:00",23.7923583643123,"Approved","OW392"
"2024-02-07 00:00",23.7873977695167,"Approved","OW392"
"2024-02-07 01:00",23.7874371747212,"Approved","OW392"
"2024-02-07 02:00",23.7854765799256,"Approved","OW392"
"2024-02-07 03:00",23.7805159851301,"Approved","OW392"
"2024-02-07 04:00",23.7775553903346,"Approved","OW392"
"2024-02-07 05:00",23.778594795539,"Approved","OW392"
"2024-02-07 06:00",23.7786342007435,"Approved","OW392"
"2024-02-07 07:00",23.777673605948,"Approved","OW392"
"2024-02-07 08:00",23.7767130111524,"Approved","OW392"
"2024-02-07 09:00",23.7777524163569,"Approved","OW392"
"2024-02-07 10:00",23.7797918215613,"Approved","OW392"
"2024-02-07 11:00",23.7828312267658,"Approved","OW392"
"2024-02-07 12:00",23.7838706319703,"Approved","OW392"
"2024-02-07 13:00",23.7889100371747,"Approved","OW392"
"2024-02-07 14:00",23.7909494423792,"Approved","OW392"
"2024-02-07 15:00",23.7949888475836,"Approved","OW392"
"2024-02-07 16:00",23.8020282527881,"Approved","OW392"
"2024-02-07 17:00",23.8070676579926,"Approved","OW392"
"2024-02-07 18:00",23.809107063197,"Approved","OW392"
"2024-02-07 19:00",23.8131464684015,"Approved","OW392"
"2024-02-07 20:00",23.8151858736059,"Approved","OW392"
"2024-02-07 21:00",23.8122252788104,"Approved","OW392"
"2024-02-07 22:00",23.8112646840149,"Approved","OW392"
"2024-02-07 23:00",23.8113040892193,"Approved","OW392"
"2024-02-08 00:00",23.8143434944238,"Approved","OW392"
"2024-02-08 01:00",23.8173828996283,"Approved","OW392"
"2024-02-08 02:00",23.8224223048327,"Approved","OW392"
"2024-02-08 03:00",23.8264617100372,"Approved","OW392"
"2024-02-08 04:00",23.8285011152416,"Approved","OW392"
"2024-02-08 05:00",23.8325405204461,"Approved","OW392"
"2024-02-08 06:00",23.8365799256506,"Approved","OW392"
"2024-02-08 07:00",23.841619330855,"Approved","OW392"
"2024-02-08 08:00",23.8496587360595,"Approved","OW392"
"2024-02-08 09:00",23.8536981412639,"Approved","OW392"
"2024-02-08 10:00",23.8527375464684,"Approved","OW392"
"2024-02-08 11:00",23.8557769516729,"Approved","OW392"
"2024-02-08 12:00",23.8618163568773,"Approved","OW392"
"2024-02-08 13:00",23.8638557620818,"Approved","OW392"
"2024-02-08 14:00",23.8678951672862,"Approved","OW392"
"2024-02-08 15:00",23.8719345724907,"Approved","OW392"
"2024-02-08 16:00",23.8749739776952,"Approved","OW392"
"2024-02-08 17:00",23.8790133828996,"Approved","OW392"
"2024-02-08 18:00",23.8820527881041,"Approved","OW392"
"2024-02-08 19:00",23.8830921933085,"Approved","OW392"
"2024-02-08 20:00",23.883131598513,"Approved","OW392"
"2024-02-08 21:00",23.8801710037175,"Approved","OW392"
"2024-02-08 22:00",23.8822104089219,"Approved","OW392"
"2024-02-08 23:00",23.8842498141264,"Approved","OW392"
"2024-02-09 00:00",23.8852892193309,"Approved","OW392"
"2024-02-09 01:00",23.8843286245353,"Approved","OW392"
"2024-02-09 02:00",23.8893680297398,"Approved","OW392"
"2024-02-09 03:00",23.8904074349442,"Approved","OW392"
"2024-02-09 04:00",23.8874468401487,"Approved","OW392"
"2024-02-09 05:00",23.8894862453532,"Approved","OW392"
"2024-02-09 06:00",23.8915256505576,"Approved","OW392"
"2024-02-09 07:00",23.8965650557621,"Approved","OW392"
"2024-02-09 08:00",23.8986044609665,"Approved","OW392"
"2024-02-09 09:00",23.901643866171,"Approved","OW392"
"2024-02-09 10:00",23.9066832713755,"Approved","OW392"
"2024-02-09 11:00",23.9067226765799,"Approved","OW392"
"2024-02-09 12:00",23.9107620817844,"Approved","OW392"
"2024-02-09 13:00",23.9128014869888,"Approved","OW392"
"2024-02-09 14:00",23.9168408921933,"Approved","OW392"
"2024-02-09 15:00",23.9208802973978,"Approved","OW392"
"2024-02-09 16:00",23.9249197026022,"Approved","OW392"
"2024-02-09 17:00",23.9299591078067,"Approved","OW392"
"2024-02-09 18:00",23.9369985130112,"Approved","OW392"
"2024-02-09 19:00",23.9430379182156,"Approved","OW392"
"2024-02-09 20:00",23.9460773234201,"Approved","OW392"
"2024-02-09 21:00",23.9441167286245,"Approved","OW392"
"2024-02-09 22:00",23.943156133829,"Approved","OW392"
"2024-02-09 23:00",23.9431955390335,"Approved","OW392"
"2024-02-10 00:00",23.9432349442379,"Approved","OW392"
"2024-02-10 01:00",23.9442743494424,"Approved","OW392"
"2024-02-10 02:00",23.9493137546468,"Approved","OW392"
"2024-02-10 03:00",23.9533531598513,"Approved","OW392"
"2024-02-10 04:00",23.9523925650558,"Approved","OW392"
"2024-02-10 05:00",23.9534319702602,"Approved","OW392"
"2024-02-10 06:00",23.9574713754647,"Approved","OW392"
"2024-02-10 07:00",23.9585107806691,"Approved","OW392"
"2024-02-10 08:00",23.9595501858736,"Approved","OW392"
"2024-02-10 09:00",23.9595895910781,"Approved","OW392"
"2024-02-10 10:00",23.9576289962825,"Approved","OW392"
"2024-02-10 11:00",23.957668401487,"Approved","OW392"
"2024-02-10 12:00",23.9567078066915,"Approved","OW392"
"2024-02-10 13:00",23.9557472118959,"Approved","OW392"
"2024-02-10 14:00",23.9537866171004,"Approved","OW392"
"2024-02-10 15:00",23.9508260223048,"Approved","OW392"
"2024-02-10 16:00",23.9508654275093,"Approved","OW392"